Вернуться в каталог

STARLINK-37639

АктивенСвязьSSO
NORAD 69146·PAYLOAD·🇺🇸 United States

Запущен May 20, 2026 с Vandenberg Space Force Base

Loading…

Ближайшие Пролёты (ближайшие 24 часа)

TLE

СвежийSource: CelesTrak SupGP

Эпоха: Sep 14, 2026, 23:25 UTC

1 69146C 26110Y   26257.97618056  .00069362  00000+0  21531-2 0  2576
2 69146  97.2852  93.1838 0001660  92.8079 284.5646 15.33403801    15

Отслеживайте STARLINK-37639 в реальном времени с AllMySat

Download on the App Store